Weather History for New Castle, PA

Change the Weather History Date:

Thursday, August 23, 2012

  Actual Average Record
Temperature  
Mean Temperature 66 °F -  
Max Temperature 82 °F 80 °F 94 °F (1959)
Min Temperature 51 °F 55 °F 41 °F (1952)
Cooling Degree Days 2    
Growing Degree Days 16 (Base 50)    
Moisture  
Dew Point 55 °F    
Average Humidity 88    
Maximum Humidity 100    
Minimum Humidity 39    
Precipitation  
Precipitation 0.00 in - - ()
Sea Level Pressure  
Sea Level Pressure 30.20 in    
Wind  
Wind Speed 0 mph (NW)    
Max Wind Speed 6 mph    
Max Gust Speed -    
Visibility 4 miles    
Events Fog    
Averages and records for this station are not official NWS values.
T = Trace of Precipitation, MM = Missing Value Source: NWS Daily Summary

Daily Weather History Graph

Daily Weather History Graph

Search for Another Location

Airport:

Trip Planner

Search our weather history database for the weather conditions in past years. The results will help you decide how hot, cold, wet, or windy it might be!

Date:

Astronomy

Aug. 23, 2012 Rise Set
Actual Time 6:39 AM EDT 8:07 PM EDT
Civil Twilight 6:10 AM EDT 8:36 PM EDT
Nautical Twilight 5:36 AM EDT 9:11 PM EDT
Astronomical Twilight 4:59 AM EDT 9:47 PM EDT
Moon 1:29 PM EDT (8/23) 11:30 PM EDT (8/23)
Length of Visible Light 14h 25m
Length of Day
13h 27m
Waxing Crescent, 40% of the Moon is Illuminated
Aug 23
Waxing Crescent
Aug 24
First Quarter
Aug 31
Full
Sep 8
Last Quarter
Sep 15
New

Hourly Weather History & Observations

Time (EDT) Temp. Heat Index Dew Point Humidity Pressure Visibility Wind Dir Wind Speed Gust Speed Precip Events Conditions
12:56 AM 57.9 °F - 56.8 °F 96% 30.20 in 9.0 mi Calm Calm - N/A   Clear
1:56 AM 55.9 °F - 55.9 °F 100% 30.20 in 7.0 mi Calm Calm - N/A   Clear
2:56 AM 54.9 °F - 54.9 °F 100% 30.21 in 3.0 mi Calm Calm - N/A   Clear
3:04 AM 55.4 °F - 55.4 °F 100% 30.18 in 2.5 mi Calm Calm - N/A   Clear
3:22 AM 55.4 °F - 55.4 °F 100% 30.17 in 1.2 mi Calm Calm - N/A   Clear
3:24 AM 55.4 °F - 55.4 °F 100% 30.17 in 0.8 mi Calm Calm - N/A   Clear
3:32 AM 55.4 °F - 55.4 °F 100% 30.18 in 0.5 mi Calm Calm - N/A Fog Fog
3:43 AM 53.6 °F - 53.6 °F 100% 30.18 in 1.0 mi Calm Calm - N/A   Clear
3:46 AM 53.6 °F - 53.6 °F 100% 30.18 in 1.8 mi Calm Calm - N/A   Clear
3:48 AM 53.6 °F - 53.6 °F 100% 30.18 in 3.0 mi Calm Calm - N/A   Clear
3:56 AM 54.0 °F - 54.0 °F 100% 30.21 in 2.0 mi Calm Calm - N/A   Clear
4:06 AM 53.6 °F - 53.6 °F 100% 30.18 in 1.8 mi Calm Calm - N/A   Clear
4:16 AM 53.6 °F - 53.6 °F 100% 30.17 in 2.5 mi Calm Calm - N/A   Clear
4:56 AM 52.0 °F - 52.0 °F 100% 30.21 in 1.8 mi Calm Calm - N/A   Clear
5:01 AM 53.6 °F - 53.6 °F 100% 30.18 in 3.0 mi Calm Calm - N/A   Clear
5:12 AM 53.6 °F - 51.8 °F 94% 30.18 in 2.5 mi Calm Calm - N/A   Clear
5:22 AM 53.6 °F - 51.8 °F 94% 30.18 in 3.0 mi Calm Calm - N/A   Clear
5:30 AM 53.6 °F - 51.8 °F 94% 30.18 in 1.5 mi Calm Calm - N/A   Clear
5:33 AM 51.8 °F - 51.8 °F 100% 30.18 in 1.0 mi Calm Calm - N/A   Clear
5:43 AM 53.6 °F - 53.6 °F 100% 30.18 in 1.5 mi Calm Calm - N/A   Clear
5:56 AM 52.0 °F - 52.0 °F 100% 30.22 in 1.5 mi Calm Calm - N/A   Clear
6:28 AM 51.8 °F - 51.8 °F 100% 30.19 in 2.5 mi Calm Calm - N/A   Clear
6:38 AM 51.8 °F - 51.8 °F 100% 30.19 in 1.2 mi Calm Calm - N/A   Clear
6:47 AM 53.6 °F - 53.6 °F 100% 30.19 in 1.0 mi Calm Calm - N/A   Clear
6:56 AM 52.0 °F - 52.0 °F 100% 30.23 in 0.5 mi Calm Calm - N/A Fog Fog
7:05 AM 51.8 °F - 51.8 °F 100% 30.20 in 1.0 mi Calm Calm - N/A   Clear
7:09 AM 53.6 °F - 53.6 °F 100% 30.20 in 0.5 mi Calm Calm - N/A Fog Fog
7:16 AM 53.6 °F - 53.6 °F 100% 30.20 in 0.2 mi Calm Calm - N/A Fog Fog
7:30 AM 53.6 °F - 53.6 °F 100% 30.20 in 0.5 mi Calm Calm - N/A Fog Fog
7:33 AM 53.6 °F - 53.6 °F 100% 30.20 in 1.0 mi Calm Calm - N/A   Clear
7:36 AM 53.6 °F - 53.6 °F 100% 30.20 in 1.8 mi Calm Calm - N/A   Clear
7:41 AM 55.4 °F - 53.6 °F 94% 30.20 in 3.0 mi Calm Calm - N/A   Clear
7:56 AM 55.9 °F - 54.9 °F 96% 30.24 in 6.0 mi Calm Calm - N/A   Clear
8:56 AM 63.9 °F - 59.0 °F 84% 30.25 in 10.0 mi Calm Calm - N/A   Clear
9:56 AM 72.0 °F - 57.9 °F 61% 30.24 in 10.0 mi Calm Calm - N/A   Clear
10:56 AM 73.9 °F - 61.0 °F 64% 30.24 in 10.0 mi Calm Calm - N/A   Clear
11:56 AM 79.9 °F - 61.0 °F 52% 30.23 in 10.0 mi Variable 3.5 mph - N/A   Clear
12:56 PM 81.0 °F 81.1 °F 57.9 °F 45% 30.22 in 10.0 mi West 4.6 mph - N/A   Partly Cloudy
3:56 PM 82.9 °F 82.4 °F 56.8 °F 41% 30.19 in 10.0 mi NNW 5.8 mph - N/A   Partly Cloudy
4:56 PM 82.9 °F 82.1 °F 55.9 °F 39% 30.18 in 10.0 mi NW 4.6 mph - N/A   Partly Cloudy
5:56 PM 81.9 °F 81.8 °F 57.9 °F 44% 30.18 in 10.0 mi Calm Calm - N/A   Clear
6:56 PM 81.0 °F 81.1 °F 57.9 °F 45% 30.16 in 10.0 mi NNE 3.5 mph - N/A   Clear
7:56 PM 73.9 °F - 59.9 °F 61% 30.17 in 10.0 mi Calm Calm - N/A   Clear
8:56 PM 68.0 °F - 59.9 °F 75% 30.19 in 10.0 mi Calm Calm - N/A   Clear
9:56 PM 64.9 °F - 59.0 °F 81% 30.19 in 10.0 mi Calm Calm - N/A   Clear
10:56 PM 61.9 °F - 59.0 °F 90% 30.20 in 10.0 mi Calm Calm - N/A   Clear
11:56 PM 61.0 °F - 57.9 °F 90% 30.19 in 8.0 mi Calm Calm - N/A   Clear